| time (UTC) | temp F | wind direction | speed knots | gust knots | rain 1hr in | rain 24hr in | rain mn in | humidity % | barometer mb |
| 20260506044804 | 63 | 339 | 0.0 | 0.0 | 0.00 | 0.00 | 0.00 | 70 | 1015.6 |
| 20260506044302 | 63 | 338 | 0.0 | 0.0 | 0.00 | 0.00 | 0.00 | 70 | 1015.4 |
| 20260506043759 | 63 | 337 | 0.0 | 0.0 | 0.00 | 0.00 | 0.00 | 68 | 1015.6 |
| 20260506043256 | 63 | 338 | 0.0 | 0.0 | 0.00 | 0.00 | 0.00 | 68 | 1015.7 |
| 20260506042755 | 63 | 338 | 0.0 | 0.0 | 0.00 | 0.00 | 0.00 | 69 | 1015.5 |
| 20260506042253 | 64 | 352 | 0.0 | 0.0 | 0.00 | 0.00 | 0.00 | 67 | 1015.5 |
| 20260506041751 | 63 | 337 | 0.0 | 0.0 | 0.00 | 0.00 | 0.00 | 67 | 1015.6 |
| 20260506041248 | 64 | 328 | 0.9 | 0.9 | 0.00 | 0.00 | 0.00 | 67 | 1015.4 |
| 20260506040745 | 64 | 341 | 0.0 | 0.0 | 0.00 | 0.00 | 0.00 | 67 | 1015.3 |
| 20260506040242 | 64 | 340 | 0.0 | 0.0 | 0.00 | 0.00 | 0.00 | 67 | 1015.3 |
| 20260506035739 | 64 | 346 | 0.0 | 0.0 | 0.00 | 0.00 | 0.00 | 65 | 1015.3 |
| 20260506035236 | 64 | 344 | 0.0 | 0.0 | 0.00 | 0.00 | 0.00 | 67 | 1015.4 |
| 20260506034733 | 64 | 305 | 0.9 | 0.9 | 0.00 | 0.00 | 0.00 | 65 | 1015.3 |
| 20260506034230 | 64 | 338 | 0.0 | 0.0 | 0.00 | 0.00 | 0.00 | 64 | 1015.6 |
| 20260506033727 | 64 | 330 | 0.0 | 0.0 | 0.00 | 0.00 | 0.00 | 64 | 1015.6 |
| 20260506033224 | 64 | 334 | 0.0 | 0.0 | 0.00 | 0.00 | 0.00 | 62 | 1015.6 |
| 20260506032721 | 65 | 321 | 0.0 | 0.9 | 0.00 | 0.00 | 0.00 | 64 | 1015.5 |
| 20260506032218 | 65 | 328 | 0.0 | 0.0 | 0.00 | 0.00 | 0.00 | 62 | 1015.7 |
| 20260506031715 | 65 | 328 | 0.0 | 0.0 | 0.00 | 0.00 | 0.00 | 62 | 1015.5 |
| 20260506031212 | 65 | 328 | 0.0 | 0.0 | 0.00 | 0.00 | 0.00 | 62 | 1015.6 |
| 20260506030710 | 65 | 327 | 0.0 | 0.0 | 0.00 | 0.00 | 0.00 | 60 | 1015.8 |
| 20260506030207 | 66 | 330 | 0.0 | 0.9 | 0.00 | 0.00 | 0.00 | 60 | 1015.6 |
| 20260506025704 | 65 | 330 | 0.0 | 0.0 | 0.00 | 0.00 | 0.00 | 60 | 1015.5 |
| 20260506025200 | 66 | 332 | 0.0 | 0.0 | 0.00 | 0.00 | 0.00 | 60 | 1015.7 |
| 20260506024658 | 66 | 325 | 0.0 | 0.0 | 0.00 | 0.00 | 0.00 | 60 | 1015.6 |
| 20260506024154 | 66 | 336 | 0.0 | 0.0 | 0.00 | 0.00 | 0.00 | 58 | 1015.6 |
| 20260506023650 | 67 | 325 | 0.0 | 0.0 | 0.00 | 0.00 | 0.00 | 57 | 1015.7 |
| 20260506023148 | 67 | 325 | 0.9 | 0.9 | 0.00 | 0.00 | 0.00 | 53 | 1015.6 |
| 20260506022645 | 67 | 333 | 0.0 | 0.0 | 0.00 | 0.00 | 0.00 | 55 | 1015.5 |
| 20260506022142 | 67 | 336 | 0.9 | 0.9 | 0.00 | 0.00 | 0.00 | 54 | 1015.2 |
| 20260506021640 | 67 | 343 | 0.0 | 0.9 | 0.00 | 0.00 | 0.00 | 55 | 1015.5 |
| 20260506021137 | 67 | 336 | 0.9 | 0.9 | 0.00 | 0.00 | 0.00 | 51 | 1015.6 |
| 20260506020634 | 67 | 339 | 0.9 | 0.9 | 0.00 | 0.00 | 0.00 | 54 | 1015.6 |
| 20260506020131 | 68 | 349 | 0.0 | 0.9 | 0.00 | 0.00 | 0.00 | 53 | 1015.7 |
| 20260506015629 | 67 | 349 | 0.9 | 0.9 | 0.00 | 0.00 | 0.00 | 51 | 1015.4 |
| 20260506015126 | 68 | 340 | 0.0 | 0.0 | 0.00 | 0.00 | 0.00 | 53 | 1015.5 |
| 20260506014623 | 68 | 33 | 0.9 | 0.9 | 0.00 | 0.00 | 0.00 | 50 | 1015.3 |
| 20260506014118 | 70 | 348 | 0.0 | 0.0 | 0.00 | 0.00 | 0.00 | 48 | 1015.3 |
| 20260506013617 | 69 | 350 | 0.9 | 1.7 | 0.00 | 0.00 | 0.00 | 48 | 1015.4 |
| 20260506013113 | 69 | 316 | 0.9 | 0.9 | 0.00 | 0.00 | 0.00 | 47 | 1015.4 |
| 20260506012610 | 68 | 340 | 0.0 | 0.9 | 0.00 | 0.00 | 0.00 | 49 | 1015.4 |
| 20260506012106 | 69 | 327 | 2.6 | 2.6 | 0.00 | 0.00 | 0.00 | 49 | 1015.2 |
| 20260506011604 | 69 | 325 | 0.9 | 0.9 | 0.00 | 0.00 | 0.00 | 51 | 1015.3 |
| 20260506011059 | 69 | 317 | 1.7 | 1.7 | 0.00 | 0.00 | 0.00 | 46 | 1015.2 |
| 20260506010554 | 70 | 315 | 0.9 | 0.9 | 0.00 | 0.00 | 0.00 | 45 | 1015.1 |
| 20260506010050 | 70 | 299 | 0.9 | 1.7 | 0.00 | 0.00 | 0.00 | 43 | 1015.1 |
| 20260506005547 | 71 | 315 | 0.9 | 0.9 | 0.00 | 0.00 | 0.00 | 46 | 1015.1 |
| 20260506005043 | 71 | 308 | 1.7 | 1.7 | 0.00 | 0.00 | 0.00 | 46 | 1015.1 |
| 20260506004541 | 71 | 314 | 1.7 | 2.6 | 0.00 | 0.00 | 0.00 | 45 | 1015.3 |
| 20260506004037 | 72 | 291 | 0.9 | 0.9 | 0.00 | 0.00 | 0.00 | 41 | 1015.1 |
| 20260506003534 | 72 | 320 | 0.9 | 1.7 | 0.00 | 0.00 | 0.00 | 40 | 1015.1 |
| 20260506003030 | 73 | 316 | 0.9 | 0.9 | 0.00 | 0.00 | 0.00 | 40 | 1015.1 |
| 20260506002526 | 73 | 17 | 0.9 | 0.9 | 0.00 | 0.00 | 0.00 | 41 | 1014.9 |
| 20260506002022 | 73 | 305 | 0.9 | 0.9 | 0.00 | 0.00 | 0.00 | 39 | 1015.0 |
| 20260506001518 | 74 | 247 | 1.7 | 1.7 | 0.00 | 0.00 | 0.00 | 38 | 1014.9 |
| 20260506001016 | 74 | 311 | 0.9 | 0.9 | 0.00 | 0.00 | 0.00 | 38 | 1014.8 |
| 20260506000514 | 74 | 317 | 0.9 | 0.9 | 0.00 | 0.00 | 0.00 | 38 | 1014.8 |
| 20260506000011 | 74 | 289 | 1.7 | 1.7 | 0.00 | 0.00 | 0.00 | 38 | 1014.6 |
| 20260505235508 | 74 | 40 | 0.9 | 0.9 | 0.00 | 0.00 | 0.00 | 38 | 1014.5 |
| 20260505235004 | 75 | 358 | 0.9 | 0.9 | 0.00 | 0.00 | 0.00 | 38 | 1014.6 |
| 20260505234502 | 75 | 356 | 0.9 | 1.7 | 0.00 | 0.00 | 0.00 | 37 | 1014.5 |
| 20260505233959 | 75 | 298 | 1.7 | 1.7 | 0.00 | 0.00 | 0.00 | 37 | 1014.3 |
| 20260505233456 | 75 | 335 | 0.0 | 0.0 | 0.00 | 0.00 | 0.00 | 36 | 1014.2 |
| 20260505232953 | 75 | 289 | 4.3 | 5.2 | 0.00 | 0.00 | 0.00 | 36 | 1014.5 |
| 20260505232451 | 75 | 268 | 1.7 | 2.6 | 0.00 | 0.00 | 0.00 | 36 | 1014.5 |
| 20260505231948 | 75 | 334 | 2.6 | 2.6 | 0.00 | 0.00 | 0.00 | 36 | 1014.5 |
| 20260505231446 | 75 | 282 | 2.6 | 2.6 | 0.00 | 0.00 | 0.00 | 36 | 1014.6 |
| 20260505230944 | 76 | 264 | 2.6 | 2.6 | 0.00 | 0.00 | 0.00 | 36 | 1014.4 |
| 20260505230441 | 76 | 341 | 1.7 | 2.6 | 0.00 | 0.00 | 0.00 | 35 | 1014.3 |
| 20260505225937 | 76 | 269 | 4.3 | 7.0 | 0.00 | 0.00 | 0.00 | 35 | 1014.3 |
| 20260505225435 | 76 | 272 | 3.5 | 5.2 | 0.00 | 0.00 | 0.00 | 34 | 1014.6 |
| 20260505224930 | 77 | 255 | 1.7 | 2.6 | 0.00 | 0.00 | 0.00 | 34 | 1014.7 |
| 20260505224427 | 77 | 285 | 6.1 | 7.0 | 0.00 | 0.00 | 0.00 | 34 | 1014.6 |
| 20260505223924 | 77 | 328 | 4.3 | 7.0 | 0.00 | 0.00 | 0.00 | 34 | 1014.5 |
| 20260505223421 | 77 | 30 | 0.9 | 1.7 | 0.00 | 0.00 | 0.00 | 34 | 1014.7 |
| 20260505222918 | 77 | 276 | 1.7 | 2.6 | 0.00 | 0.00 | 0.00 | 33 | 1014.5 |
| 20260505222414 | 77 | 339 | 2.6 | 2.6 | 0.00 | 0.00 | 0.00 | 33 | 1014.5 |
| 20260505221910 | 77 | 341 | 4.3 | 5.2 | 0.00 | 0.00 | 0.00 | 32 | 1014.6 |
| 20260505221408 | 77 | 284 | 3.5 | 5.2 | 0.00 | 0.00 | 0.00 | 32 | 1014.5 |
| 20260505220904 | 77 | 297 | 5.2 | 7.0 | 0.00 | 0.00 | 0.00 | 32 | 1014.6 |
| 20260505220401 | 77 | 321 | 2.6 | 2.6 | 0.00 | 0.00 | 0.00 | 31 | 1014.7 |
| 20260505215859 | 78 | 254 | 3.5 | 5.2 | 0.00 | 0.00 | 0.00 | 30 | 1014.7 |
| 20260505215357 | 78 | 319 | 1.7 | 1.7 | 0.00 | 0.00 | 0.00 | 30 | 1014.4 |
| 20260505214855 | 78 | 339 | 0.9 | 0.9 | 0.00 | 0.00 | 0.00 | 30 | 1014.6 |
| 20260505214352 | 78 | 292 | 1.7 | 2.6 | 0.00 | 0.00 | 0.00 | 29 | 1014.4 |
| 20260505213849 | 79 | 64 | 2.6 | 2.6 | 0.00 | 0.00 | 0.00 | 29 | 1014.3 |
| 20260505213347 | 79 | 11 | 0.9 | 0.9 | 0.00 | 0.00 | 0.00 | 29 | 1014.7 |
| 20260505212843 | 79 | 71 | 0.9 | 1.7 | 0.00 | 0.00 | 0.00 | 28 | 1014.3 |
| 20260505212340 | 79 | 327 | 3.5 | 7.0 | 0.00 | 0.00 | 0.00 | 27 | 1014.5 |
| 20260505211836 | 79 | 279 | 5.2 | 7.8 | 0.00 | 0.00 | 0.00 | 26 | 1014.6 |
| 20260505211334 | 79 | 291 | 3.5 | 7.0 | 0.00 | 0.00 | 0.00 | 26 | 1014.6 |
| 20260505210830 | 79 | 284 | 0.9 | 1.7 | 0.00 | 0.00 | 0.00 | 26 | 1014.6 |
| 20260505210327 | 80 | 336 | 0.9 | 1.7 | 0.00 | 0.00 | 0.00 | 26 | 1014.5 |
| 20260505205824 | 80 | 267 | 2.6 | 2.6 | 0.00 | 0.00 | 0.00 | 25 | 1014.6 |
| 20260505205322 | 81 | 278 | 1.7 | 2.6 | 0.00 | 0.00 | 0.00 | 25 | 1014.5 |
| 20260505204818 | 80 | 292 | 4.3 | 6.1 | 0.00 | 0.00 | 0.00 | 24 | 1014.8 |
| 20260505204317 | 80 | 272 | 3.5 | 5.2 | 0.00 | 0.00 | 0.00 | 23 | 1015.0 |
| 20260505203814 | 80 | 165 | 2.6 | 2.6 | 0.00 | 0.00 | 0.00 | 23 | 1014.7 |
| 20260505203310 | 80 | 324 | 0.9 | 0.9 | 0.00 | 0.00 | 0.00 | 25 | 1014.5 |
| 20260505202806 | 80 | 277 | 3.5 | 4.3 | 0.00 | 0.00 | 0.00 | 24 | 1014.4 |
| 20260505202306 | 81 | 105 | 3.5 | 4.3 | 0.00 | 0.00 | 0.00 | 26 | 1014.4 |
| 20260505201800 | 82 | 342 | 2.6 | 2.6 | 0.00 | 0.00 | 0.00 | 24 | 1014.4 |
| 20260505201257 | 82 | 325 | 0.9 | 0.9 | 0.00 | 0.00 | 0.00 | 23 | 1014.5 |
| 20260505200755 | 82 | 358 | 3.5 | 5.2 | 0.00 | 0.00 | 0.00 | 24 | 1014.8 |
| 20260505200252 | 82 | 313 | 8.7 | 11.3 | 0.00 | 0.00 | 0.00 | 24 | 1014.5 |
| 20260505195747 | 82 | 275 | 4.3 | 6.1 | 0.00 | 0.00 | 0.00 | 24 | 1014.5 |
| 20260505195245 | 83 | 305 | 0.9 | 0.9 | 0.00 | 0.00 | 0.00 | 23 | 1014.4 |
| 20260505194742 | 82 | 304 | 4.3 | 6.1 | 0.00 | 0.00 | 0.00 | 25 | 1014.4 |
| 20260505194238 | 82 | 253 | 0.9 | 0.9 | 0.00 | 0.00 | 0.00 | 25 | 1014.7 |
| 20260505193734 | 82 | 286 | 3.5 | 5.2 | 0.00 | 0.00 | 0.00 | 25 | 1014.7 |
| 20260505193232 | 82 | 246 | 4.3 | 5.2 | 0.00 | 0.00 | 0.00 | 24 | 1014.7 |
| 20260505192730 | 83 | 300 | 5.2 | 7.0 | 0.00 | 0.00 | 0.00 | 24 | 1014.5 |
| 20260505192228 | 82 | 225 | 4.3 | 6.1 | 0.00 | 0.00 | 0.00 | 24 | 1014.9 |
| 20260505191726 | 82 | 183 | 2.6 | 6.1 | 0.00 | 0.00 | 0.00 | 26 | 1014.6 |
| 20260505191224 | 81 | 287 | 1.7 | 2.6 | 0.00 | 0.00 | 0.00 | 26 | 1014.7 |
| 20260505190720 | 82 | 299 | 9.6 | 11.3 | 0.00 | 0.00 | 0.00 | 26 | 1014.6 |
| 20260505190219 | 82 | 251 | 4.3 | 5.2 | 0.00 | 0.00 | 0.00 | 26 | 1014.8 |
| 20260505185716 | 82 | 228 | 5.2 | 7.8 | 0.00 | 0.00 | 0.00 | 26 | 1015.0 |
| 20260505185213 | 82 | 132 | 3.5 | 5.2 | 0.00 | 0.00 | 0.00 | 27 | 1015.0 |
| 20260505184709 | 82 | 251 | 3.5 | 5.2 | 0.00 | 0.00 | 0.00 | 27 | 1014.7 |
| 20260505184207 | 82 | 325 | 7.8 | 11.3 | 0.00 | 0.00 | 0.00 | 25 | 1015.2 |
| 20260505183703 | 82 | 276 | 4.3 | 5.2 | 0.00 | 0.00 | 0.00 | 28 | 1015.2 |
| 20260505183201 | 84 | 305 | 2.6 | 2.6 | 0.00 | 0.00 | 0.00 | 29 | 1015.2 |
| 20260505182656 | 82 | 6 | 2.6 | 4.3 | 0.00 | 0.00 | 0.00 | 28 | 1015.2 |
| 20260505182154 | 81 | 274 | 2.6 | 4.3 | 0.00 | 0.00 | 0.00 | 30 | 1015.2 |
| 20260505181650 | 81 | 259 | 1.7 | 1.7 | 0.00 | 0.00 | 0.00 | 30 | 1015.3 |
| 20260505181148 | 81 | 329 | 2.6 | 5.2 | 0.00 | 0.00 | 0.00 | 30 | 1015.3 |
| 20260505180644 | 81 | 247 | 4.3 | 6.1 | 0.00 | 0.00 | 0.00 | 30 | 1015.4 |
| 20260505180141 | 81 | 271 | 0.9 | 0.9 | 0.00 | 0.00 | 0.00 | 31 | 1015.4 |
| 20260505175637 | 82 | 290 | 2.6 | 2.6 | 0.00 | 0.00 | 0.00 | 31 | 1015.6 |
| 20260505175133 | 80 | 271 | 1.7 | 1.7 | 0.00 | 0.00 | 0.00 | 33 | 1015.5 |
| 20260505174630 | 80 | 292 | 3.5 | 6.1 | 0.00 | 0.00 | 0.00 | 33 | 1015.7 |
| 20260505174126 | 78 | 86 | 0.9 | 1.7 | 0.00 | 0.00 | 0.00 | 34 | 1015.6 |
| 20260505173623 | 78 | 341 | 1.7 | 1.7 | 0.00 | 0.00 | 0.00 | 35 | 1015.9 |
| 20260505173120 | 79 | 219 | 2.6 | 2.6 | 0.00 | 0.00 | 0.00 | 34 | 1016.0 |
| 20260505172618 | 80 | 279 | 1.7 | 1.7 | 0.00 | 0.00 | 0.00 | 33 | 1015.8 |
| 20260505172114 | 80 | 274 | 3.5 | 4.3 | 0.00 | 0.00 | 0.00 | 33 | 1016.0 |
| 20260505171609 | 80 | 255 | 4.3 | 5.2 | 0.00 | 0.00 | 0.00 | 35 | 1016.0 |
| 20260505171106 | 80 | 273 | 2.6 | 4.3 | 0.00 | 0.00 | 0.00 | 34 | 1016.0 |
| 20260505170603 | 78 | 196 | 1.7 | 4.3 | 0.00 | 0.00 | 0.00 | 35 | 1016.0 |
| 20260505170059 | 77 | 308 | 3.5 | 5.2 | 0.00 | 0.00 | 0.00 | 36 | 1016.5 |
| 20260505165554 | 76 | 325 | 1.7 | 1.7 | 0.00 | 0.00 | 0.00 | 37 | 1016.4 |
| 20260505165051 | 76 | 5 | 2.6 | 2.6 | 0.00 | 0.00 | 0.00 | 38 | 1016.6 |
| 20260505164546 | 77 | 277 | 6.1 | 7.8 | 0.00 | 0.00 | 0.00 | 37 | 1016.4 |
| 20260505164044 | 77 | 346 | 4.3 | 7.0 | 0.00 | 0.00 | 0.00 | 37 | 1016.5 |
| 20260505163542 | 77 | 211 | 2.6 | 4.3 | 0.00 | 0.00 | 0.00 | 37 | 1016.6 |
| 20260505163039 | 77 | 250 | 2.6 | 2.6 | 0.00 | 0.00 | 0.00 | 37 | 1016.9 |
| 20260505162532 | 77 | 333 | 2.6 | 2.6 | 0.00 | 0.00 | 0.00 | 37 | 1016.8 |
| 20260505162029 | 76 | 323 | 0.9 | 1.7 | 0.00 | 0.00 | 0.00 | 38 | 1016.9 |
| 20260505161526 | 77 | 252 | 7.8 | 11.3 | 0.00 | 0.00 | 0.00 | 38 | 1017.1 |
| 20260505161023 | 77 | 1 | 3.5 | 4.3 | 0.00 | 0.00 | 0.00 | 39 | 1017.0 |
| 20260505160521 | 76 | 15 | 1.7 | 2.6 | 0.00 | 0.00 | 0.00 | 39 | 1017.2 |
| 20260505152957 | 76 | 182 | 1.7 | 1.7 | 0.00 | 0.00 | 0.00 | 40 | 1017.0 |
| 20260505152455 | 75 | 248 | 4.3 | 5.2 | 0.00 | 0.00 | 0.00 | 40 | 1017.3 |
| 20260505151950 | 75 | 336 | 0.9 | 1.7 | 0.00 | 0.00 | 0.00 | 40 | 1017.1 |
| 20260505151445 | 75 | 277 | 6.1 | 7.8 | 0.00 | 0.00 | 0.00 | 39 | 1017.0 |
| 20260505150943 | 76 | 242 | 2.6 | 5.2 | 0.00 | 0.00 | 0.00 | 38 | 1017.1 |
| 20260505150440 | 76 | 271 | 4.3 | 6.1 | 0.00 | 0.00 | 0.00 | 39 | 1016.9 |
| 20260505140410 | 74 | 264 | 6.1 | 8.7 | 0.00 | 0.00 | 0.00 | 43 | 1017.1 |
| 20260505124823 | 64 | 12 | 0.0 | 0.0 | 0.00 | 0.00 | 0.00 | 70 | 1017.3 |
| 20260505124320 | 62 | 185 | 1.7 | 1.7 | 0.00 | 0.00 | 0.00 | 71 | 1017.3 |
| 20260505123816 | 62 | 4 | 0.0 | 0.0 | 0.00 | 0.00 | 0.00 | 73 | 1017.5 |
| 20260505123313 | 61 | 20 | 0.9 | 0.9 | 0.00 | 0.00 | 0.00 | 75 | 1017.5 |
| 20260505122809 | 60 | 269 | 0.9 | 0.9 | 0.00 | 0.00 | 0.00 | 75 | 1017.4 |
| 20260505122307 | 59 | 328 | 0.0 | 0.0 | 0.00 | 0.00 | 0.00 | 78 | 1017.6 |
| 20260505121803 | 58 | 0 | 0.9 | 0.9 | 0.00 | 0.00 | 0.00 | 79 | 1017.5 |
| 20260505121300 | 57 | 308 | 0.0 | 0.0 | 0.00 | 0.00 | 0.00 | 81 | 1017.7 |
| 20260505120756 | 56 | 7 | 0.9 | 0.9 | 0.00 | 0.00 | 0.00 | 83 | 1017.6 |
| 20260505120252 | 55 | 351 | 0.0 | 0.0 | 0.00 | 0.00 | 0.00 | 84 | 1017.9 |
| 20260505115751 | 55 | 34 | 0.9 | 0.9 | 0.00 | 0.00 | 0.00 | 85 | 1018.0 |
| 20260505115249 | 55 | 351 | 0.0 | 0.0 | 0.00 | 0.00 | 0.00 | 86 | 1017.6 |
| 20260505114746 | 55 | 11 | 0.0 | 0.0 | 0.00 | 0.00 | 0.00 | 86 | 1018.1 |
| 20260505114242 | 54 | 346 | 0.0 | 0.0 | 0.00 | 0.00 | 0.00 | 86 | 1017.9 |
| 20260505113739 | 53 | 348 | 0.0 | 0.0 | 0.00 | 0.00 | 0.00 | 90 | 1017.9 |
| 20260505113235 | 52 | 343 | 0.0 | 0.0 | 0.00 | 0.00 | 0.00 | 91 | 1018.2 |
| 20260505112731 | 52 | 345 | 0.0 | 0.0 | 0.00 | 0.00 | 0.00 | 94 | 1018.0 |
| 20260505112229 | 51 | 340 | 0.0 | 0.0 | 0.00 | 0.00 | 0.00 | 95 | 1018.0 |
| 20260505111729 | 50 | 187 | 0.9 | 1.7 | 0.00 | 0.00 | 0.00 | 96 | 1017.9 |
| 20260505111225 | 50 | 343 | 0.0 | 0.0 | 0.00 | 0.00 | 0.00 | 96 | 1018.0 |
| 20260505110721 | 50 | 338 | 0.0 | 0.0 | 0.00 | 0.00 | 0.00 | 96 | 1017.8 |
| 20260505110219 | 50 | 340 | 0.0 | 0.0 | 0.00 | 0.00 | 0.00 | 96 | 1017.8 |
| 20260505102154 | 49 | 338 | 0.0 | 0.0 | 0.00 | 0.00 | 0.00 | 96 | 1017.2 |
| 20260505101653 | 49 | 344 | 0.0 | 0.0 | 0.00 | 0.00 | 0.00 | 96 | 1017.2 |
| 20260505101149 | 49 | 342 | 0.0 | 0.0 | 0.00 | 0.00 | 0.00 | 96 | 1017.5 |
| 20260505100645 | 49 | 328 | 0.0 | 0.0 | 0.00 | 0.00 | 0.00 | 96 | 1017.4 |
| 20260505100142 | 49 | 340 | 0.0 | 0.0 | 0.00 | 0.00 | 0.00 | 95 | 1017.0 |
| 20260505095638 | 49 | 346 | 0.0 | 0.0 | 0.00 | 0.00 | 0.00 | 95 | 1016.9 |
| 20260505095136 | 49 | 344 | 0.0 | 0.0 | 0.00 | 0.00 | 0.00 | 95 | 1017.1 |
| 20260505094631 | 49 | 341 | 0.0 | 0.0 | 0.00 | 0.00 | 0.00 | 95 | 1016.7 |
| 20260505094128 | 50 | 344 | 0.0 | 0.0 | 0.00 | 0.00 | 0.00 | 95 | 1017.0 |
| 20260505093624 | 50 | 333 | 0.0 | 0.0 | 0.00 | 0.00 | 0.00 | 94 | 1017.0 |
| 20260505093122 | 50 | 340 | 0.0 | 0.0 | 0.00 | 0.00 | 0.00 | 94 | 1017.1 |
| 20260505092619 | 50 | 334 | 0.0 | 0.0 | 0.00 | 0.00 | 0.00 | 94 | 1016.9 |
| 20260505092118 | 50 | 299 | 0.9 | 1.7 | 0.00 | 0.00 | 0.00 | 94 | 1017.0 |
| 20260505091613 | 50 | 315 | 0.9 | 0.9 | 0.00 | 0.00 | 0.00 | 94 | 1017.1 |
| 20260505091112 | 50 | 333 | 0.0 | 0.0 | 0.00 | 0.00 | 0.00 | 93 | 1016.9 |
| 20260505090610 | 50 | 340 | 0.0 | 0.0 | 0.00 | 0.00 | 0.00 | 93 | 1016.9 |
| 20260505090108 | 50 | 345 | 0.0 | 0.9 | 0.00 | 0.00 | 0.00 | 93 | 1016.7 |
| 20260505085605 | 50 | 338 | 0.0 | 0.0 | 0.00 | 0.00 | 0.00 | 92 | 1016.6 |
| 20260505085103 | 51 | 323 | 0.0 | 0.9 | 0.00 | 0.00 | 0.00 | 92 | 1016.5 |
| 20260505084600 | 51 | 315 | 0.9 | 0.9 | 0.00 | 0.00 | 0.00 | 91 | 1016.3 |
| 20260505084058 | 51 | 324 | 0.9 | 0.9 | 0.00 | 0.00 | 0.00 | 91 | 1016.4 |
| 20260505083555 | 51 | 352 | 0.9 | 0.9 | 0.00 | 0.00 | 0.00 | 91 | 1016.2 |
| 20260505083052 | 51 | 352 | 0.9 | 0.9 | 0.00 | 0.00 | 0.00 | 91 | 1016.3 |
| 20260505082548 | 51 | 354 | 0.0 | 0.0 | 0.00 | 0.00 | 0.00 | 91 | 1016.5 |
| 20260505082045 | 51 | 3 | 0.0 | 0.0 | 0.00 | 0.00 | 0.00 | 90 | 1016.5 |
| 20260505081541 | 51 | 349 | 0.0 | 0.0 | 0.00 | 0.00 | 0.00 | 89 | 1016.2 |
| 20260505081038 | 51 | 336 | 0.0 | 0.0 | 0.00 | 0.00 | 0.00 | 89 | 1016.6 |
| 20260505080534 | 51 | 327 | 0.0 | 0.0 | 0.00 | 0.00 | 0.00 | 90 | 1016.6 |
| 20260505080031 | 51 | 333 | 0.0 | 0.0 | 0.00 | 0.00 | 0.00 | 90 | 1016.7 |
| 20260505075527 | 51 | 336 | 0.0 | 0.0 | 0.00 | 0.00 | 0.00 | 90 | 1016.6 |
| 20260505075024 | 51 | 334 | 0.0 | 0.0 | 0.00 | 0.00 | 0.00 | 90 | 1016.7 |
| 20260505074521 | 51 | 3 | 0.0 | 0.0 | 0.00 | 0.00 | 0.00 | 90 | 1016.6 |
| 20260505074019 | 51 | 326 | 0.0 | 0.0 | 0.00 | 0.00 | 0.00 | 90 | 1016.5 |
| 20260505073516 | 51 | 349 | 0.0 | 0.0 | 0.00 | 0.00 | 0.00 | 89 | 1016.5 |
| 20260505073014 | 51 | 342 | 0.0 | 0.0 | 0.00 | 0.00 | 0.00 | 88 | 1016.7 |
| 20260505072509 | 52 | 340 | 0.0 | 0.0 | 0.00 | 0.00 | 0.00 | 88 | 1016.4 |
| 20260505072006 | 51 | 341 | 0.0 | 0.0 | 0.00 | 0.00 | 0.00 | 88 | 1016.2 |
| 20260505071501 | 52 | 341 | 0.0 | 0.0 | 0.00 | 0.00 | 0.00 | 88 | 1016.3 |
| 20260505071000 | 52 | 340 | 0.0 | 0.0 | 0.00 | 0.00 | 0.00 | 87 | 1016.0 |
| 20260505070456 | 52 | 339 | 0.0 | 0.0 | 0.00 | 0.00 | 0.00 | 86 | 1015.9 |
| 20260505065952 | 53 | 340 | 0.0 | 0.0 | 0.00 | 0.00 | 0.00 | 85 | 1015.9 |
| 20260505065448 | 52 | 334 | 0.0 | 0.0 | 0.00 | 0.00 | 0.00 | 86 | 1016.2 |
| 20260505064945 | 52 | 331 | 0.0 | 0.0 | 0.00 | 0.00 | 0.00 | 86 | 1016.0 |
| 20260505064442 | 53 | 331 | 0.0 | 0.0 | 0.00 | 0.00 | 0.00 | 85 | 1015.9 |
| 20260505063941 | 53 | 336 | 0.0 | 0.0 | 0.00 | 0.00 | 0.00 | 85 | 1016.2 |
| 20260505063437 | 53 | 336 | 0.0 | 0.0 | 0.00 | 0.00 | 0.00 | 85 | 1016.3 |
| 20260505062933 | 53 | 332 | 0.0 | 0.0 | 0.00 | 0.00 | 0.00 | 85 | 1016.2 |
| 20260505062431 | 53 | 332 | 0.0 | 0.0 | 0.00 | 0.00 | 0.00 | 84 | 1016.3 |
| 20260505061927 | 53 | 345 | 0.0 | 0.0 | 0.00 | 0.00 | 0.00 | 83 | 1016.3 |
| 20260505061426 | 53 | 330 | 0.0 | 0.0 | 0.00 | 0.00 | 0.00 | 83 | 1015.9 |
| 20260505060923 | 54 | 330 | 0.0 | 0.0 | 0.00 | 0.00 | 0.00 | 82 | 1016.3 |
| 20260505060420 | 54 | 330 | 0.0 | 0.0 | 0.00 | 0.00 | 0.00 | 82 | 1015.9 |
| 20260505055916 | 54 | 330 | 0.0 | 0.0 | 0.00 | 0.00 | 0.00 | 82 | 1016.0 |
| 20260505055412 | 54 | 330 | 0.0 | 0.0 | 0.00 | 0.00 | 0.00 | 82 | 1016.4 |
| 20260505054909 | 54 | 330 | 0.0 | 0.0 | 0.00 | 0.00 | 0.00 | 82 | 1016.4 |
| 20260505054406 | 55 | 330 | 0.0 | 0.0 | 0.00 | 0.00 | 0.00 | 81 | 1016.4 |
| 20260505053904 | 55 | 330 | 0.0 | 0.0 | 0.00 | 0.00 | 0.00 | 80 | 1016.5 |
| 20260505053401 | 56 | 330 | 0.0 | 0.0 | 0.00 | 0.00 | 0.00 | 78 | 1016.4 |
| 20260505052858 | 56 | 330 | 0.0 | 0.0 | 0.00 | 0.00 | 0.00 | 78 | 1016.4 |
| 20260505052355 | 55 | 321 | 0.9 | 0.9 | 0.00 | 0.00 | 0.00 | 79 | 1016.5 |
| 20260505051852 | 55 | 330 | 0.0 | 0.0 | 0.00 | 0.00 | 0.00 | 80 | 1016.3 |
| 20260505051349 | 55 | 330 | 0.0 | 0.0 | 0.00 | 0.00 | 0.00 | 80 | 1016.4 |
| 20260505050847 | 56 | 330 | 0.0 | 0.0 | 0.00 | 0.00 | 0.00 | 79 | 1016.4 |
| 20260505050346 | 57 | 330 | 0.0 | 0.0 | 0.00 | 0.00 | 0.00 | 78 | 1016.5 |